{"data":{"norad_id":56702,"epoch":"2026-05-24T15:30:40.809024Z","epoch_age_seconds":95711,"freshness":"FRESH","line1":"1 56702U 23067Q   26144.64630566  .00000928  00000+0  43239-4 0  9994","line2":"2 56702  43.0018 209.0957 0001428 259.0033 101.0658 15.27581678167237","mean_motion":15.27581678,"eccentricity":0.0001428,"inclination_deg":43.0018,"raan_deg":209.0957,"arg_perigee_deg":259.0033,"mean_anomaly_deg":101.0658,"bstar":4.3239e-5,"rev_number":16723,"period_min":94.266645164619,"perigee_km":482.06429485158,"apogee_km":484.02384816561,"semimajor_km":6861.1810715086,"source":"CELESTRAK","updated_at":"2026-05-25T13:38:18.121583Z"}}